EN

Hourly Weather Kapfenberg

Today, 27 January, Wednesday

Time Temperature Precipitation Wind Pressure Humidity
00:00 -6°C° 0.3 mm 3 mps 705 mmHg 91%
01:00 -6°C° 0.3 mm 3 mps 705 mmHg 90%
02:00 -6°C° 0.1 mm 3 mps 705 mmHg 90%
03:00 -6°C° 0.1 mm 3 mps 705 mmHg 90%
04:00 -7°C° 0.1 mm 3 mps 705 mmHg 89%
05:00 -6°C° 0.1 mm 2 mps 705 mmHg 90%
06:00 -6°C° 0.1 mm 2 mps 705 mmHg 90%
07:00 -7°C° 0.1 mm 2 mps 705 mmHg 91%
08:00 -6°C° 0 mm 2 mps 705 mmHg 89%
09:00 -2°C° 0 mm 1 mps 705 mmHg 86%
10:00 -1°C° 0 mm 1 mps 706 mmHg 84%
11:00 0°C° 0 mm 1 mps 705 mmHg 80%
12:00 +1°C° 0 mm 1 mps 705 mmHg 77%
13:00 +2°C° 0 mm 1 mps 704 mmHg 73%
14:00 0°C° 0 mm 0 mps 704 mmHg 76%
15:00 -1°C° 0 mm 0 mps 703 mmHg 79%
16:00 -1°C° 0 mm 0 mps 703 mmHg 82%
17:00 -2°C° 0 mm 0 mps 703 mmHg 82%
18:00 -2°C° 0 mm 1 mps 703 mmHg 83%
19:00 -3°C° 0 mm 1 mps 703 mmHg 84%
20:00 -3°C° 0 mm 1 mps 703 mmHg 84%
21:00 -3°C° 0 mm 1 mps 703 mmHg 84%
22:00 -3°C° 0 mm 1 mps 703 mmHg 84%
23:00 -4°C° 0 mm 1 mps 703 mmHg 85%

Tomorrow, 28 January, Thursday

Time Temperature Precipitation Wind Pressure Humidity
00:00 -4°C° 0 mm 1 mps 703 mmHg 86%
01:00 -4°C° 0 mm 1 mps 703 mmHg 87%
02:00 -4°C° 0.1 mm 1 mps 703 mmHg 89%
03:00 -3°C° 0.1 mm 1 mps 703 mmHg 90%
04:00 -3°C° 0.1 mm 1 mps 703 mmHg 91%
05:00 -3°C° 0.1 mm 1 mps 703 mmHg 92%
06:00 -3°C° 0.1 mm 1 mps 703 mmHg 92%
07:00 -3°C° 0.1 mm 1 mps 702 mmHg 92%
08:00 -2°C° 0.1 mm 1 mps 703 mmHg 91%
09:00 0°C° 0.1 mm 1 mps 703 mmHg 89%
10:00 +1°C° 0.1 mm 1 mps 703 mmHg 88%
11:00 +2°C° 0 mm 1 mps 702 mmHg 87%
12:00 +3°C° 0 mm 1 mps 702 mmHg 87%
13:00 +4°C° 0 mm 1 mps 701 mmHg 86%
14:00 +4°C° 0 mm 1 mps 701 mmHg 88%
15:00 +3°C° 0 mm 1 mps 700 mmHg 90%
16:00 +3°C° 0 mm 1 mps 699 mmHg 91%
17:00 +3°C° 0.6 mm 1 mps 698 mmHg 92%
18:00 +2°C° 0.6 mm 1 mps 698 mmHg 93%
19:00 +2°C° 0.6 mm 1 mps 698 mmHg 94%
20:00 +2°C° 1.4 mm 1 mps 697 mmHg 95%
21:00 +2°C° 1.4 mm 1 mps 697 mmHg 96%
22:00 +2°C° 1.4 mm 2 mps 697 mmHg 97%
23:00 +2°C° 2 mm 2 mps 697 mmHg 97%

Day after tomorrow, 29 January, Friday

Time Temperature Precipitation Wind Pressure Humidity
00:00 +2°C° 2 mm 2 mps 697 mmHg 97%
01:00 +3°C° 2 mm 2 mps 697 mmHg 97%
02:00 +3°C° 1.3 mm 2 mps 697 mmHg 97%
03:00 +2°C° 1.3 mm 3 mps 697 mmHg 97%
04:00 +2°C° 1.3 mm 3 mps 697 mmHg 97%
05:00 +3°C° 0.3 mm 2 mps 697 mmHg 96%
06:00 +3°C° 0.3 mm 2 mps 697 mmHg 95%
07:00 +3°C° 0.3 mm 2 mps 697 mmHg 95%
08:00 +3°C° 0 mm 2 mps 697 mmHg 95%
09:00 +5°C° 0 mm 1 mps 697 mmHg 96%
10:00 +5°C° 0 mm 1 mps 697 mmHg 97%
11:00 +5°C° 0.2 mm 1 mps 696 mmHg 97%
12:00 +6°C° 0.2 mm 1 mps 696 mmHg 97%
13:00 +6°C° 0.2 mm 1 mps 696 mmHg 97%
14:00 +6°C° 0.7 mm 1 mps 695 mmHg 97%
15:00 +5°C° 0.7 mm 1 mps 694 mmHg 97%
16:00 +5°C° 0.7 mm 1 mps 694 mmHg 98%
17:00 +3°C° 0.8 mm 2 mps 694 mmHg 97%
18:00 +2°C° 0.8 mm 3 mps 695 mmHg 96%
19:00 +2°C° 0.8 mm 3 mps 696 mmHg 96%
20:00 +1°C° 0.1 mm 4 mps 696 mmHg 95%
21:00 +1°C° 0.1 mm 4 mps 696 mmHg 94%
22:00 +1°C° 0.1 mm 4 mps 696 mmHg 93%
23:00 0°C° 0.1 mm 4 mps 696 mmHg 93%

30 January, Saturday

Time Temperature Precipitation Wind Pressure Humidity
00:00 +1°C° 0.1 mm 3 mps 697 mmHg 93%
01:00 +1°C° 0.1 mm 2 mps 697 mmHg 93%
02:00 +1°C° 0.1 mm 2 mps 696 mmHg 93%
03:00 +1°C° 0.1 mm 2 mps 696 mmHg 93%
04:00 +1°C° 0.1 mm 2 mps 696 mmHg 93%
05:00 -1°C° 0.1 mm 2 mps 696 mmHg 93%
06:00 +1°C° 0.1 mm 1 mps 695 mmHg 92%
07:00 +1°C° 0.1 mm 1 mps 695 mmHg 92%
08:00 +2°C° 0 mm 1 mps 695 mmHg 92%
09:00 +3°C° 0 mm 1 mps 695 mmHg 92%
10:00 +3°C° 0 mm 0 mps 695 mmHg 92%
11:00 +3°C° 0 mm 0 mps 694 mmHg 92%
12:00 +4°C° 0 mm 0 mps 693 mmHg 92%
13:00 +4°C° 0 mm 0 mps 692 mmHg 92%
14:00 +4°C° 0 mm 0 mps 692 mmHg 93%
15:00 +3°C° 0 mm 0 mps 691 mmHg 94%
16:00 +3°C° 0 mm 0 mps 691 mmHg 95%
17:00 +2°C° 0 mm 0 mps 690 mmHg 95%
18:00 +3°C° 0 mm 1 mps 690 mmHg 94%
19:00 +2°C° 0 mm 1 mps 690 mmHg 93%
20:00 +2°C° 0 mm 1 mps 690 mmHg 92%
21:00 +2°C° 0 mm 1 mps 690 mmHg 91%
22:00 +2°C° 0 mm 1 mps 690 mmHg 91%
23:00 +2°C° 0.1 mm 1 mps 690 mmHg 91%

31 January, Sunday

Time Temperature Precipitation Wind Pressure Humidity
00:00 +2°C° 0.1 mm 1 mps 690 mmHg 92%
01:00 +2°C° 0.1 mm 1 mps 690 mmHg 92%
02:00 +2°C° 0.4 mm 1 mps 690 mmHg 93%
03:00 +2°C° 0.4 mm 1 mps 691 mmHg 94%
04:00 +2°C° 0.4 mm 1 mps 691 mmHg 95%
05:00 +1°C° 0.2 mm 2 mps 692 mmHg 94%
06:00 -1°C° 0.2 mm 2 mps 693 mmHg 94%
07:00 -2°C° 0.2 mm 2 mps 694 mmHg 93%
08:00 -2°C° 0.1 mm 3 mps 695 mmHg 89%
09:00 -2°C° 0.1 mm 3 mps 696 mmHg 84%
10:00 -4°C° 0.1 mm 3 mps 697 mmHg 80%
11:00 -4°C° 0 mm 3 mps 697 mmHg 76%
12:00 -2°C° 0 mm 3 mps 698 mmHg 72%
13:00 -2°C° 0 mm 3 mps 698 mmHg 69%
14:00 -4°C° 0 mm 3 mps 698 mmHg 72%
15:00 -3°C° 0 mm 2 mps 698 mmHg 75%
16:00 -3°C° 0 mm 2 mps 699 mmHg 78%
17:00 -5°C° 0 mm 2 mps 699 mmHg 82%
18:00 -4°C° 0 mm 1 mps 699 mmHg 85%
19:00 -6°C° 0 mm 1 mps 699 mmHg 89%
20:00 -7°C° 0 mm 1 mps 700 mmHg 89%
21:00 -7°C° 0 mm 1 mps 700 mmHg 89%
22:00 -7°C° 0 mm 1 mps 700 mmHg 88%
23:00 -7°C° 0 mm 1 mps 700 mmHg 86%

1 February, Monday

Time Temperature Precipitation Wind Pressure Humidity
00:00 -8°C° 0 mm 1 mps 700 mmHg 84%
01:00 -8°C° 0 mm 1 mps 700 mmHg 81%
02:00 -8°C° 0 mm 1 mps 700 mmHg 79%
03:00 -8°C° 0 mm 1 mps 700 mmHg 77%
04:00 -8°C° 0 mm 1 mps 700 mmHg 74%
05:00 -8°C° 0 mm 1 mps 700 mmHg 73%
06:00 -8°C° 0 mm 1 mps 700 mmHg 72%
07:00 -8°C° 0 mm 1 mps 701 mmHg 70%
08:00 -7°C° 0 mm 1 mps 701 mmHg 70%
09:00 -4°C° 0 mm 1 mps 701 mmHg 69%
10:00 -2°C° 0 mm 1 mps 701 mmHg 68%
11:00 -1°C° 0 mm 1 mps 701 mmHg 68%
12:00 0°C° 0 mm 1 mps 701 mmHg 68%
13:00 +1°C° 0 mm 1 mps 701 mmHg 68%
14:00 +1°C° 0 mm 1 mps 700 mmHg 72%
15:00 +1°C° 0 mm 1 mps 700 mmHg 76%
16:00 +1°C° 0 mm 1 mps 700 mmHg 81%
17:00 0°C° 0 mm 1 mps 699 mmHg 82%
18:00 -1°C° 0 mm 1 mps 699 mmHg 83%
19:00 -2°C° 0 mm 1 mps 699 mmHg 84%
20:00 -1°C° 0 mm 1 mps 699 mmHg 84%
21:00 -1°C° 0 mm 1 mps 699 mmHg 85%
22:00 0°C° 0 mm 1 mps 698 mmHg 85%
23:00 0°C° 0.3 mm 1 mps 698 mmHg 86%
Show more

We Need Your Consent

Meteoprog and our Service Providers may store and access personal data such as cookies, device identifiers or other similar technologies on your device and process such data to personalise content and ads, as well as provide social media features and to analyse the traffic.

  • Store and/or access information on your device

    Cookies, device identifiers or other information can be stored or accessed on your device for the purposes indicated above.

  • Personalised ads and content, ad and content measurement, audience insights, and products development

    Ads and content can be personalised based on a profile. More data can be added to better personalise ads and content. Ad and content performance can be measured. Insights about the audience who saw the ads and content can be derived. Such data can be used to develop or improve user’s experience, systems and software.

By clicking ‘I Agree’ you will allow the use of indicated cookies, device identifiers, web beacons or other similar technologies. Your settings can be changed in the browser on your device.

For certain purposes, legitimate interests may be relied on, rather than consent. You can read more about this in our Privacy and Cookie Policy.